Portada
METAR-TAF:

METAR-TAF

Aeropuertos :

Qeshm, Irán

latitud: 26-45-18N, longitud: 055-54-08E, altitud: 12 m

Observación

El informe se hizo hace 28 minutos, a las 22:00 UTC
Viento 10 kt del suroeste
Temperatura 23°C
Humedad 78%
Presión 1012 hPa
Visibilidad 10 km o más
sin nubes por debajo de 1500 m y sin presencia de cumulonimbus.

METAR: OIKQ 312200Z 23010KT CAVOK 23/19 Q1012

Hora: 02:58 (22:28 UTC)


TAF: falta

Observaciones y pronósticos meteorológicos de más de 4000 aeropuertos (mensajes METAR y TAF).

Los puntos amarillos y rojos representan las estaciones disponibles.

Ponga el ratón en el punto deseado para ver el nombre de la estación.

Haga clic para ver las observaciones y los pronósticos meteorológicos.

Para cambiar el mapa : haga clic en los botones verdes con una cruz de color negro para hacer un zoom, en el botón verde con un guión para alejar o en las flechas verdes para mapas adyacentes.


METAR-TAF: